When you browse on this site, cookies collect data to enhance your experience and personalize the content and advertising you see.
Visit our Privacy Policy to learn more. By continuing to use the site, you agree to this use of cookies and data.
  • In Austria
  • List of Countries
  • For 7 days
  • Water Temperature
  • Satellite Maps
  • Weather Map
  • News
  • Weather Widgets
  • user-avatar
    Login

    Hourly Weather Krizhopol

    Today, 21 July, Sunday

    Time Temperature Precipitation Wind Pressure Humidity
    00:00 +19°C° 0.1 mm 1 mps 739 mmHg 73%
    01:00 +17°C° 0.1 mm 0 mps 739 mmHg 75%
    02:00 +17°C° 0 mm 0 mps 739 mmHg 76%
    03:00 +16°C° 0 mm 0 mps 739 mmHg 77%
    04:00 +16°C° 0 mm 0 mps 739 mmHg 77%
    05:00 +16°C° 0 mm 0 mps 739 mmHg 78%
    06:00 +18°C° 0 mm 0 mps 739 mmHg 73%
    07:00 +20°C° 0 mm 0 mps 739 mmHg 68%
    08:00 +24°C° 0 mm 1 mps 740 mmHg 61%
    09:00 +25°C° 0 mm 1 mps 740 mmHg 57%
    10:00 +27°C° 0 mm 2 mps 740 mmHg 53%
    11:00 +28°C° 0 mm 2 mps 740 mmHg 48%
    12:00 +28°C° 0 mm 2 mps 740 mmHg 47%
    13:00 +29°C° 0 mm 2 mps 739 mmHg 46%
    14:00 +29°C° 0 mm 2 mps 739 mmHg 45%
    15:00 +29°C° 0 mm 2 mps 739 mmHg 46%
    16:00 +29°C° 0 mm 1 mps 739 mmHg 47%
    17:00 +29°C° 0 mm 1 mps 739 mmHg 48%
    18:00 +27°C° 0 mm 1 mps 739 mmHg 53%
    19:00 +26°C° 0 mm 1 mps 739 mmHg 57%
    20:00 +24°C° 0 mm 1 mps 738 mmHg 62%
    21:00 +23°C° 0 mm 1 mps 738 mmHg 65%
    22:00 +22°C° 0 mm 1 mps 739 mmHg 68%
    23:00 +20°C° 0 mm 0 mps 739 mmHg 72%

    Tomorrow, 22 July, Monday

    Time Temperature Precipitation Wind Pressure Humidity
    00:00 +19°C° 0 mm 0 mps 739 mmHg 72%
    01:00 +19°C° 0 mm 0 mps 739 mmHg 73%
    02:00 +19°C° 0 mm 0 mps 739 mmHg 74%
    03:00 +21°C° 0 mm 1 mps 738 mmHg 74%
    04:00 +21°C° 0 mm 1 mps 738 mmHg 75%
    05:00 +21°C° 0 mm 1 mps 738 mmHg 75%
    06:00 +21°C° 0.1 mm 2 mps 738 mmHg 74%
    07:00 +22°C° 0.1 mm 3 mps 738 mmHg 73%
    08:00 +24°C° 0.1 mm 3 mps 739 mmHg 72%
    09:00 +23°C° 0 mm 4 mps 739 mmHg 71%
    10:00 +23°C° 0 mm 4 mps 739 mmHg 71%
    11:00 +23°C° 0 mm 4 mps 739 mmHg 70%
    12:00 +25°C° 0 mm 4 mps 739 mmHg 66%
    13:00 +27°C° 0 mm 4 mps 738 mmHg 62%
    14:00 +28°C° 0 mm 4 mps 738 mmHg 58%
    15:00 +28°C° 0.1 mm 4 mps 738 mmHg 59%
    16:00 +27°C° 0.1 mm 5 mps 738 mmHg 60%
    17:00 +27°C° 0.1 mm 5 mps 738 mmHg 61%
    18:00 +25°C° 0 mm 4 mps 738 mmHg 67%
    19:00 +24°C° 0 mm 3 mps 738 mmHg 74%
    20:00 +21°C° 0 mm 3 mps 738 mmHg 81%
    21:00 +21°C° 0 mm 3 mps 738 mmHg 83%
    22:00 +20°C° 0 mm 3 mps 738 mmHg 85%
    23:00 +19°C° 0 mm 3 mps 738 mmHg 87%

    Day after tomorrow, 23 July, Tuesday

    Time Temperature Precipitation Wind Pressure Humidity
    00:00 +19°C° 0 mm 3 mps 738 mmHg 86%
    01:00 +19°C° 0 mm 3 mps 738 mmHg 86%
    02:00 +18°C° 0 mm 3 mps 738 mmHg 85%
    03:00 +18°C° 0 mm 3 mps 738 mmHg 87%
    04:00 +17°C° 0 mm 3 mps 737 mmHg 88%
    05:00 +17°C° 0 mm 3 mps 737 mmHg 90%
    06:00 +18°C° 0 mm 4 mps 737 mmHg 84%
    07:00 +19°C° 0 mm 4 mps 737 mmHg 79%
    08:00 +20°C° 0 mm 5 mps 738 mmHg 74%
    09:00 +21°C° 0 mm 5 mps 738 mmHg 69%
    10:00 +22°C° 0 mm 5 mps 738 mmHg 64%
    11:00 +23°C° 0 mm 5 mps 738 mmHg 58%
    12:00 +25°C° 0 mm 5 mps 737 mmHg 55%
    13:00 +25°C° 0 mm 5 mps 737 mmHg 51%
    14:00 +25°C° 0 mm 5 mps 737 mmHg 47%
    15:00 +25°C° 0 mm 5 mps 737 mmHg 49%
    16:00 +25°C° 0 mm 5 mps 737 mmHg 51%
    17:00 +23°C° 0 mm 5 mps 737 mmHg 52%
    18:00 +22°C° 0 mm 5 mps 736 mmHg 59%
    19:00 +20°C° 0 mm 4 mps 736 mmHg 66%
    20:00 +19°C° 0 mm 3 mps 736 mmHg 72%
    21:00 +18°C° 0 mm 3 mps 736 mmHg 76%
    22:00 +17°C° 0 mm 3 mps 737 mmHg 79%
    23:00 +16°C° 0 mm 3 mps 737 mmHg 82%

    24 July, Wednesday

    Time Temperature Precipitation Wind Pressure Humidity
    00:00 +16°C° 0.3 mm 3 mps 736 mmHg 84%
    01:00 +16°C° 0.3 mm 3 mps 736 mmHg 86%
    02:00 +16°C° 0.3 mm 3 mps 736 mmHg 87%
    03:00 +16°C° 0.6 mm 3 mps 736 mmHg 90%
    04:00 +14°C° 0.6 mm 3 mps 736 mmHg 93%
    05:00 +14°C° 0.6 mm 3 mps 736 mmHg 97%
    06:00 +16°C° 0 mm 3 mps 736 mmHg 92%
    07:00 +17°C° 0 mm 3 mps 736 mmHg 87%
    08:00 +19°C° 0 mm 4 mps 736 mmHg 82%
    09:00 +20°C° 0.1 mm 4 mps 736 mmHg 75%
    10:00 +21°C° 0.1 mm 4 mps 736 mmHg 68%
    11:00 +22°C° 0.1 mm 4 mps 736 mmHg 61%
    12:00 +23°C° 0.3 mm 4 mps 736 mmHg 62%
    13:00 +23°C° 0.3 mm 5 mps 736 mmHg 62%
    14:00 +23°C° 0.3 mm 5 mps 736 mmHg 63%
    15:00 +22°C° 0.9 mm 5 mps 736 mmHg 68%
    16:00 +22°C° 0.9 mm 5 mps 735 mmHg 72%
    17:00 +21°C° 0.9 mm 4 mps 735 mmHg 77%
    18:00 +21°C° 0.6 mm 4 mps 735 mmHg 80%
    19:00 +20°C° 0.6 mm 3 mps 735 mmHg 84%
    20:00 +19°C° 0.6 mm 3 mps 735 mmHg 87%
    21:00 +18°C° 0.1 mm 3 mps 736 mmHg 89%
    22:00 +18°C° 0.1 mm 4 mps 736 mmHg 90%
    23:00 +17°C° 0.1 mm 4 mps 736 mmHg 91%

    25 July, Thursday

    Time Temperature Precipitation Wind Pressure Humidity
    00:00 +17°C° 0 mm 4 mps 736 mmHg 92%
    01:00 +16°C° 0 mm 5 mps 736 mmHg 93%
    02:00 +16°C° 0 mm 5 mps 736 mmHg 94%
    03:00 +16°C° 0 mm 5 mps 736 mmHg 95%
    04:00 +15°C° 0 mm 5 mps 736 mmHg 95%
    05:00 +15°C° 0 mm 5 mps 736 mmHg 96%
    06:00 +16°C° 0 mm 5 mps 736 mmHg 92%
    07:00 +17°C° 0 mm 6 mps 737 mmHg 89%
    08:00 +19°C° 0 mm 6 mps 737 mmHg 85%
    09:00 +21°C° 0.1 mm 6 mps 737 mmHg 79%
    10:00 +22°C° 0.1 mm 7 mps 737 mmHg 73%
    11:00 +23°C° 0.1 mm 7 mps 737 mmHg 67%
    12:00 +24°C° 0.2 mm 7 mps 737 mmHg 64%
    13:00 +26°C° 0.2 mm 7 mps 737 mmHg 61%
    14:00 +26°C° 0.2 mm 8 mps 737 mmHg 58%
    15:00 +26°C° 0.2 mm 7 mps 737 mmHg 60%
    16:00 +26°C° 0.2 mm 7 mps 737 mmHg 61%
    17:00 +24°C° 0.2 mm 7 mps 737 mmHg 63%
    18:00 +23°C° 0.1 mm 6 mps 737 mmHg 68%
    19:00 +21°C° 0.1 mm 5 mps 737 mmHg 72%
    20:00 +20°C° 0.1 mm 4 mps 737 mmHg 77%
    21:00 +19°C° 0 mm 4 mps 737 mmHg 78%
    22:00 +18°C° 0 mm 4 mps 737 mmHg 79%
    23:00 +18°C° 0 mm 4 mps 737 mmHg 80%

    26 July, Friday

    Time Temperature Precipitation Wind Pressure Humidity
    00:00 +17°C° 0 mm 4 mps 737 mmHg 81%
    01:00 +17°C° 0 mm 4 mps 737 mmHg 83%
    02:00 +15°C° 0 mm 4 mps 737 mmHg 85%
    03:00 +15°C° 0 mm 4 mps 737 mmHg 85%
    04:00 +15°C° 0 mm 4 mps 737 mmHg 86%
    05:00 +15°C° 0 mm 4 mps 737 mmHg 87%
    06:00 +16°C° 0 mm 5 mps 737 mmHg 82%
    07:00 +19°C° 0 mm 5 mps 737 mmHg 77%
    08:00 +21°C° 0 mm 6 mps 737 mmHg 72%
    09:00 +22°C° 0 mm 6 mps 737 mmHg 68%
    10:00 +23°C° 0 mm 6 mps 737 mmHg 64%
    11:00 +26°C° 0 mm 6 mps 737 mmHg 60%
    12:00 +24°C° 0.6 mm 6 mps 737 mmHg 64%
    13:00 +25°C° 0.6 mm 5 mps 737 mmHg 68%
    14:00 +23°C° 0.6 mm 5 mps 737 mmHg 73%
    15:00 +23°C° 0.4 mm 5 mps 736 mmHg 73%
    16:00 +25°C° 0.4 mm 5 mps 736 mmHg 72%
    17:00 +25°C° 0.4 mm 5 mps 736 mmHg 72%
    18:00 +22°C° 0.1 mm 4 mps 736 mmHg 78%
    19:00 +21°C° 0.1 mm 4 mps 737 mmHg 84%
    20:00 +20°C° 0.1 mm 3 mps 737 mmHg 90%
    21:00 +19°C° 0 mm 3 mps 737 mmHg 91%
    22:00 +18°C° 0 mm 3 mps 737 mmHg 93%
    23:00 +18°C° 0 mm 3 mps 737 mmHg 95%
    Show more